SCP
0 0 0 0 0 0 0 0 0 0 0 0 0 0 0 0 0 0 0 0 0 0 0 0 0 0 0 0 0 0 0 0 0 0 0 0 0 0
0 0 0 0 0 0 0 0 0 0 0 0 0 0 0 0 0 0 0 0 0 0 0 0 0 0 0 0 0 0 0 0 0 0 0 0 0 0
0 0 0 0 0 0 0 0 0 0 0 0 0 0 0 0 0 0 0 0 0 0 0 0 0 0 0 0 0 0 0 0 0 0 0 0 0 0
0 0 0 0 0 0 0 0 0 0 0 0 0 0 0 0 0 0 0 0 0 0 0 0 0 0 0 0 0 0 0 0 0 0 0 0 0 0
0 0 0 0 0 0 0 0 0 0 0 0 0 0 0 0 0 0 0 0 0 0 0 0 0 0 0 0 0 0 0 0 0 0 0 0 0 0
0 0 0 0 0 0 0 0 0 0 0 0 0 0 0 0 0 0 0 0 0 0 0 0 0 0 0 0 0 0 0 0 0 0 0 0 0 0
0 0 0 0 0 0 0 0 0 0 0 0 0 0 0 0 0 0 0 0 0 0 0 0 0 0 0 0 0 0 0 0 0 0 0 0 0 0
0 0 0 0 0 0 0 0 0 0 0 0 0 0 0 0 0 0 0 0 0 0 0 0 0 0 0 0 0 0 0 0 0 0 0 0 0 0
0 0 0 0 0 0 0 0 0 0 0 0 0 0 0 0 0 0 0 0 0 0 0 0 0 0 0 0 0 0 0 0 0 0 0 0 0 0
0 0 0 0 0 0 0 0 0 0 0 0 0 0 0 0 0 0 0 0 0 0 0 0 0 0 0 0 0 0 0 0 0 0 0 0 0 0
0 0 0 0 0 0 0 0 0 0 0 0 0 0 0 0 0 0 0 0 0 0 0 0 0 0 0 0 0 0 0 0 0 0 0 0 0 0
0 0 0 0 0 0 0 0 0 0 0 0 0 0 0 0 0 0 0 0 0 0 0 0 0 0 0 0 0 0 0 0 0 0 0 0 0 0
0 0 0 0 0 0 0 0 0 0 0 0 0 0 0 0 0 0 0 0 0 0 0 0 0 0 0 0 0 0 0 0 0 0 0 0 0 0
0 0 0 0 0 0 0 0 0 0 0 0 0 0 0 0 0 0 0 0 0 0 0 0 0 0 0 0 0 0 0 0 0 0 0 0 0 0
0 0 0 0 0 0 0 0 0 0 0 0 0 0 0 0 0 0 0 0 0 0 0 0 0 0 0 0 0 0 0 0 0 0 0 0 0 0
0 0 0 0 0 0 0 0 0 0 0 0 0 0 0 0 0 0 0 0 0 0 0 0 0 0 0 0 0 0 0 0 0 0 0 0 0 0
0 0 0 0 0 0 0 0 0 0 0 0 0 0 0 0 0 0 0 0 0 0 0 0 0 0 0 0 0 0 0 0 0 0 0 0 0 0
0 0 0 0 0 0 0 0 0 0 0 0 0 0 0 0 0 0 0 0 0 0 0 0 0 0 0 0 0 0 0 0 0 0 0 0 0 0
0 0 0 0 0 0 0 0 0 0 0 0 0 0 0 0 0 0 0 0 0 0 0 0 0 0 0 0 0 0 0 0 0 0 0 0 0 0
0 0 0 0 0 0 0 0 0 0 0 0 0 0 0 0 0 0 0 0 0 0 0 0 0 0 0 0 0 0 0 0 0 0 0 0 0 0
0 0 0 0 0 0 0 0 0 0 0 0 0 0 0 0 0 0 0 0 0 0 0 0 0 0 0 0 0 0 0 0 0 0 0 0 0 0
0 0 0 0 0 0 0 0 0 0 0 0 0 0 0 0 0 0 0 0 0 0 0 0 0 0 0 0 0 0 0 0 0 0 0 0 0 0
0 0 0 0 0 0 0 0 0 0 0 0 0 0 0 0 0 0 0 0 0 0 0 0 0 0 0 0 0 0 0 0 0 0 0 0 0 0
Wind_Speed_500mb
90 90 91 91 90 86 90 85 84 71 80 76 76 72 65 61 53 46 35 29 26 25 26 24 21 23 23 22 21 22 24 25 29 33 33 34 34 36
95 97 94 89 91 95 96 92 96 92 87 79 68 73 62 60 55 44 35 30 28 27 27 26 27 30 30 28 24 23 24 24 27 32 34 33 35 34
95 99 99 101 104 101 102 104 105 94 90 83 71 60 61 56 56 46 38 31 28 28 31 34 35 37 36 33 30 26 24 25 26 31 34 35 35 33
83 90 94 96 103 108 106 110 113 105 95 88 71 57 60 58 50 44 37 29 29 29 33 35 39 42 42 39 34 33 28 26 27 29 32 34 34 35
79 84 81 86 85 89 111 98 108 101 87 65 50 43 59 55 54 51 36 31 26 32 36 41 39 47 47 45 40 35 36 31 27 31 33 32 34 33
83 82 85 90 82 85 84 90 99 97 81 66 49 49 54 59 55 48 42 31 24 31 32 43 44 47 51 49 44 39 38 38 33 29 32 32 34 33
63 77 73 83 75 73 85 77 85 96 78 56 45 55 53 54 61 47 44 24 17 28 39 39 48 48 53 51 49 43 42 40 38 34 30 32 33 33
64 64 65 69 66 65 73 72 79 70 62 56 57 55 52 65 57 50 42 21 28 32 36 33 51 47 48 49 50 48 46 43 40 40 33 31 32 32
57 58 58 57 55 50 57 59 53 56 59 42 64 55 49 59 51 46 34 26 32 35 39 45 57 48 46 49 56 49 47 45 43 39 36 34 31 32
61 57 57 53 52 46 46 44 47 50 53 59 52 44 48 38 42 38 33 32 32 38 40 51 57 52 46 46 45 45 45 46 44 40 36 36 35 34
56 55 52 51 50 53 46 43 43 46 45 42 46 52 49 41 42 37 35 29 35 38 49 53 54 57 51 46 42 46 44 43 43 40 37 36 36 38
41 37 40 41 39 38 35 36 41 41 44 45 48 51 51 49 40 36 30 35 36 44 47 50 50 42 37 45 40 46 47 46 43 40 39 38 38 40
27 27 27 27 26 26 27 29 35 34 40 45 42 49 49 49 44 38 34 39 42 48 53 53 54 52 50 49 43 36 39 36 40 41 42 40 40 42
21 21 18 17 17 19 26 27 31 36 34 39 45 44 49 51 43 35 41 45 54 52 56 57 57 53 56 52 52 50 47 48 53 51 44 44 44 43
16 13 13 12 16 24 28 29 30 29 34 41 47 52 58 47 39 42 50 56 57 62 59 57 57 56 56 59 59 59 55 51 51 55 52 50 47 47
17 14 13 16 17 23 26 30 28 30 32 36 44 50 52 50 49 54 58 58 61 60 54 53 57 52 60 61 61 66 64 59 53 48 43 42 42 43
10 12 13 17 20 22 25 29 32 38 42 43 50 56 55 57 62 59 61 60 58 60 58 53 53 51 56 63 70 69 65 64 56 53 55 57 55 55
13 14 15 13 18 23 30 34 35 43 44 45 47 52 58 61 62 66 62 60 61 63 57 58 56 51 56 64 66 68 69 62 57 54 53 56 58 52
11 14 16 18 21 25 28 33 37 40 41 44 48 50 59 65 62 61 65 63 63 60 57 55 50 49 55 65 61 56 52 52 45 45 43 48 52 45
12 13 14 16 19 23 25 29 32 34 35 36 45 55 58 60 62 61 59 60 59 58 59 58 54 54 57 63 65 61 52 46 43 42 40 42 45 44
14 17 20 22 22 25 26 28 29 32 39 45 51 55 58 58 58 56 55 55 56 57 59 58 56 53 51 53 61 66 62 53 52 50 46 45 47 49
25 27 28 32 33 34 35 38 41 45 49 53 55 58 58 55 54 52 51 50 51 51 53 53 51 48 47 49 55 58 58 49 42 43 51 47 49 43
34 37 39 40 43 46 49 50 52 54 55 55 55 55 54 53 50 50 51 49 49 48 47 47 46 45 46 48 49 50 50 48 42 40 41 43 46 46
Wind_Direction_500mb
257 255 256 259 259 259 260 261 261 254 261 263 258 253 247 242 242 246 250 254 268 282 292 300 301 297 302 309 318 326 337 340 347 348 351 354 360 359
262 261 258 258 260 258 258 261 260 257 260 268 263 253 247 240 235 239 243 250 263 277 287 291 294 295 292 296 302 312 325 331 338 339 342 348 352 354
267 266 264 261 263 261 262 260 258 254 255 256 258 244 239 235 230 232 239 246 258 275 285 287 297 287 286 289 295 303 314 321 329 331 336 339 343 350
278 272 273 272 269 269 264 264 258 258 251 246 244 247 235 228 226 230 235 243 260 275 281 290 290 285 284 286 289 296 301 311 317 325 329 334 338 340
269 273 277 276 274 279 267 273 260 251 241 243 253 247 236 227 229 233 233 233 261 271 275 288 288 282 282 280 283 289 294 301 306 316 323 329 330 334
275 275 278 276 275 276 277 284 275 256 249 238 232 240 235 234 230 233 235 231 262 272 280 284 287 283 280 278 278 283 286 289 299 305 314 322 324 327
278 286 293 283 283 285 279 271 278 262 245 233 225 223 232 240 229 234 228 237 271 280 276 283 285 283 283 275 275 278 278 280 288 294 302 311 317 322
281 279 284 283 282 285 289 286 279 264 245 224 221 216 244 240 235 230 219 236 282 290 282 298 285 282 284 278 273 272 274 273 277 284 293 301 311 317
278 281 283 286 290 293 293 291 275 254 237 231 219 238 235 234 240 222 225 243 263 289 304 292 289 287 290 278 273 272 268 268 270 274 284 293 303 309
276 278 280 284 290 295 292 281 263 245 234 218 230 233 238 232 226 218 238 249 264 288 299 293 288 293 292 284 273 270 265 266 267 269 278 288 296 304
284 285 289 289 288 289 282 270 253 246 228 212 238 229 238 217 207 223 240 258 292 301 315 288 289 290 297 284 278 274 268 263 265 265 275 283 289 296
293 297 289 294 296 293 279 260 247 235 218 241 238 231 228 212 217 229 242 277 297 300 304 281 283 283 290 289 273 267 267 265 264 264 272 277 282 290
296 304 314 316 314 299 270 259 250 245 238 232 226 234 222 210 226 239 263 285 295 289 300 282 280 282 280 275 275 277 275 257 258 268 275 276 280 286
328 317 307 308 298 278 264 254 242 236 232 247 246 232 219 221 238 260 279 290 292 298 291 273 270 275 280 283 276 274 267 263 269 271 272 274 275 281
317 312 310 290 265 257 250 237 233 246 251 245 241 232 223 230 246 270 289 290 290 293 275 269 270 275 276 275 277 282 283 273 266 268 272 274 271 276
307 307 285 261 246 245 251 251 247 254 260 261 257 243 234 246 261 275 288 295 285 280 274 269 273 268 269 272 276 279 279 272 271 271 273 274 268 267
298 304 290 284 277 271 258 262 272 271 266 256 250 245 245 256 266 284 291 287 279 277 277 270 271 270 266 266 273 274 272 277 275 275 271 270 265 267
324 320 309 296 291 284 279 274 275 279 276 268 257 249 253 266 280 286 289 283 278 280 277 278 277 273 269 268 269 269 274 276 277 273 268 267 266 264
308 300 291 290 290 291 286 282 282 285 284 277 268 267 274 280 288 292 289 284 280 279 277 276 276 274 275 275 277 276 273 278 277 269 267 264 270 268
310 304 296 288 289 292 291 288 283 280 276 274 274 277 284 288 287 286 284 281 278 277 275 272 268 265 266 272 278 276 276 274 270 264 267 265 266 263
290 291 292 289 284 281 279 278 279 280 281 282 284 286 286 285 285 283 282 280 279 277 276 277 279 277 273 271 268 270 272 268 269 267 265 263 268 267
297 290 282 281 280 280 281 281 282 284 285 284 284 284 284 283 281 281 280 279 278 276 276 277 278 278 275 271 273 276 279 278 272 264 263 259 262 265
295 292 288 284 283 284 286 288 290 290 289 287 287 284 282 279 276 276 277 277 277 277 277 278 277 275 276 276 276 276 275 277 275 263 250 254 261 265
Wind_Speed_850mb
90 90 91 91 90 86 90 85 84 71 80 76 76 72 65 61 53 46 35 29 26 25 26 24 21 23 23 22 21 22 24 25 29 33 33 34 34 36
95 97 94 89 91 95 96 92 96 92 87 79 68 73 62 60 55 44 35 30 28 27 27 26 27 30 30 28 24 23 24 24 27 32 34 33 35 34
95 99 99 101 104 101 102 104 105 94 90 83 71 60 61 56 56 46 38 31 28 28 31 34 35 37 36 33 30 26 24 25 26 31 34 35 35 33
83 90 94 96 103 108 106 110 113 105 95 88 71 57 60 58 50 44 37 29 29 29 33 35 39 42 42 39 34 33 28 26 27 29 32 34 34 35
79 84 81 86 85 89 111 98 108 101 87 65 50 43 59 55 54 51 36 31 26 32 36 41 39 47 47 45 40 35 36 31 27 31 33 32 34 33
83 82 85 90 82 85 84 90 99 97 81 66 49 49 54 59 55 48 42 31 24 31 32 43 44 47 51 49 44 39 38 38 33 29 32 32 34 33
63 77 73 83 75 73 85 77 85 96 78 56 45 55 53 54 61 47 44 24 17 28 39 39 48 48 53 51 49 43 42 40 38 34 30 32 33 33
64 64 65 69 66 65 73 72 79 70 62 56 57 55 52 65 57 50 42 21 28 32 36 33 51 47 48 49 50 48 46 43 40 40 33 31 32 32
57 58 58 57 55 50 57 59 53 56 59 42 64 55 49 59 51 46 34 26 32 35 39 45 57 48 46 49 56 49 47 45 43 39 36 34 31 32
61 57 57 53 52 46 46 44 47 50 53 59 52 44 48 38 42 38 33 32 32 38 40 51 57 52 46 46 45 45 45 46 44 40 36 36 35 34
56 55 52 51 50 53 46 43 43 46 45 42 46 52 49 41 42 37 35 29 35 38 49 53 54 57 51 46 42 46 44 43 43 40 37 36 36 38
41 37 40 41 39 38 35 36 41 41 44 45 48 51 51 49 40 36 30 35 36 44 47 50 50 42 37 45 40 46 47 46 43 40 39 38 38 40
27 27 27 27 26 26 27 29 35 34 40 45 42 49 49 49 44 38 34 39 42 48 53 53 54 52 50 49 43 36 39 36 40 41 42 40 40 42
21 21 18 17 17 19 26 27 31 36 34 39 45 44 49 51 43 35 41 45 54 52 56 57 57 53 56 52 52 50 47 48 53 51 44 44 44 43
16 13 13 12 16 24 28 29 30 29 34 41 47 52 58 47 39 42 50 56 57 62 59 57 57 56 56 59 59 59 55 51 51 55 52 50 47 47
17 14 13 16 17 23 26 30 28 30 32 36 44 50 52 50 49 54 58 58 61 60 54 53 57 52 60 61 61 66 64 59 53 48 43 42 42 43
10 12 13 17 20 22 25 29 32 38 42 43 50 56 55 57 62 59 61 60 58 60 58 53 53 51 56 63 70 69 65 64 56 53 55 57 55 55
13 14 15 13 18 23 30 34 35 43 44 45 47 52 58 61 62 66 62 60 61 63 57 58 56 51 56 64 66 68 69 62 57 54 53 56 58 52
11 14 16 18 21 25 28 33 37 40 41 44 48 50 59 65 62 61 65 63 63 60 57 55 50 49 55 65 61 56 52 52 45 45 43 48 52 45
12 13 14 16 19 23 25 29 32 34 35 36 45 55 58 60 62 61 59 60 59 58 59 58 54 54 57 63 65 61 52 46 43 42 40 42 45 44
14 17 20 22 22 25 26 28 29 32 39 45 51 55 58 58 58 56 55 55 56 57 59 58 56 53 51 53 61 66 62 53 52 50 46 45 47 49
25 27 28 32 33 34 35 38 41 45 49 53 55 58 58 55 54 52 51 50 51 51 53 53 51 48 47 49 55 58 58 49 42 43 51 47 49 43
34 37 39 40 43 46 49 50 52 54 55 55 55 55 54 53 50 50 51 49 49 48 47 47 46 45 46 48 49 50 50 48 42 40 41 43 46 46
Wind_Direction_850mb
257 255 256 259 259 259 260 261 261 254 261 263 258 253 247 242 242 246 250 254 268 282 292 300 301 297 302 309 318 326 337 340 347 348 351 354 360 359
262 261 258 258 260 258 258 261 260 257 260 268 263 253 247 240 235 239 243 250 263 277 287 291 294 295 292 296 302 312 325 331 338 339 342 348 352 354
267 266 264 261 263 261 262 260 258 254 255 256 258 244 239 235 230 232 239 246 258 275 285 287 297 287 286 289 295 303 314 321 329 331 336 339 343 350
278 272 273 272 269 269 264 264 258 258 251 246 244 247 235 228 226 230 235 243 260 275 281 290 290 285 284 286 289 296 301 311 317 325 329 334 338 340
269 273 277 276 274 279 267 273 260 251 241 243 253 247 236 227 229 233 233 233 261 271 275 288 288 282 282 280 283 289 294 301 306 316 323 329 330 334
275 275 278 276 275 276 277 284 275 256 249 238 232 240 235 234 230 233 235 231 262 272 280 284 287 283 280 278 278 283 286 289 299 305 314 322 324 327
278 286 293 283 283 285 279 271 278 262 245 233 225 223 232 240 229 234 228 237 271 280 276 283 285 283 283 275 275 278 278 280 288 294 302 311 317 322
281 279 284 283 282 285 289 286 279 264 245 224 221 216 244 240 235 230 219 236 282 290 282 298 285 282 284 278 273 272 274 273 277 284 293 301 311 317
278 281 283 286 290 293 293 291 275 254 237 231 219 238 235 234 240 222 225 243 263 289 304 292 289 287 290 278 273 272 268 268 270 274 284 293 303 309
276 278 280 284 290 295 292 281 263 245 234 218 230 233 238 232 226 218 238 249 264 288 299 293 288 293 292 284 273 270 265 266 267 269 278 288 296 304
284 285 289 289 288 289 282 270 253 246 228 212 238 229 238 217 207 223 240 258 292 301 315 288 289 290 297 284 278 274 268 263 265 265 275 283 289 296
293 297 289 294 296 293 279 260 247 235 218 241 238 231 228 212 217 229 242 277 297 300 304 281 283 283 290 289 273 267 267 265 264 264 272 277 282 290
296 304 314 316 314 299 270 259 250 245 238 232 226 234 222 210 226 239 263 285 295 289 300 282 280 282 280 275 275 277 275 257 258 268 275 276 280 286
328 317 307 308 298 278 264 254 242 236 232 247 246 232 219 221 238 260 279 290 292 298 291 273 270 275 280 283 276 274 267 263 269 271 272 274 275 281
317 312 310 290 265 257 250 237 233 246 251 245 241 232 223 230 246 270 289 290 290 293 275 269 270 275 276 275 277 282 283 273 266 268 272 274 271 276
307 307 285 261 246 245 251 251 247 254 260 261 257 243 234 246 261 275 288 295 285 280 274 269 273 268 269 272 276 279 279 272 271 271 273 274 268 267
298 304 290 284 277 271 258 262 272 271 266 256 250 245 245 256 266 284 291 287 279 277 277 270 271 270 266 266 273 274 272 277 275 275 271 270 265 267
324 320 309 296 291 284 279 274 275 279 276 268 257 249 253 266 280 286 289 283 278 280 277 278 277 273 269 268 269 269 274 276 277 273 268 267 266 264
308 300 291 290 290 291 286 282 282 285 284 277 268 267 274 280 288 292 289 284 280 279 277 276 276 274 275 275 277 276 273 278 277 269 267 264 270 268
310 304 296 288 289 292 291 288 283 280 276 274 274 277 284 288 287 286 284 281 278 277 275 272 268 265 266 272 278 276 276 274 270 264 267 265 266 263
290 291 292 289 284 281 279 278 279 280 281 282 284 286 286 285 285 283 282 280 279 277 276 277 279 277 273 271 268 270 272 268 269 267 265 263 268 267
297 290 282 281 280 280 281 281 282 284 285 284 284 284 284 283 281 281 280 279 278 276 276 277 278 278 275 271 273 276 279 278 272 264 263 259 262 265
295 292 288 284 283 284 286 288 290 290 289 287 287 284 282 279 276 276 277 277 277 277 277 278 277 275 276 276 276 276 275 277 275 263 250 254 261 265